Location: East Irvine
(33.6759°N, 117.7598°W)
Time: 13:45:18
(UTC+00:00)

COSMO-SKYMED 1 - Visible Passes

Search period start: 14 February 2026 00:00
Search period end: 24 February 2026 00:00
Orbit: 577 x 579 km, 97.9° (Epoch: 13 February)

Date Brightness Start Highest point End Pass type
(mag) Time Alt. Az. Time Alt. Az. Time Alt. Az.
14 Feb 2.4 02:02:12 10° NNE 02:06:16 60° E 02:10:18 10° S visible
14 Feb 4.8 12:47:40 10° ESE 12:50:55 23° ENE 12:54:11 10° NNE visible
15 Feb 2.4 02:06:32 10° NNE 02:10:38 69° E 02:14:41 10° S visible
15 Feb 4.6 12:51:51 10° SE 12:55:15 26° ENE 12:58:40 10° NNE visible
16 Feb 2.4 02:10:52 10° NNE 02:14:59 79° ESE 02:19:04 10° S visible
16 Feb 4.4 12:56:02 10° SE 12:59:34 29° ENE 13:03:08 10° NNE visible
17 Feb 2.4 02:15:13 10° NNE 02:19:20 89° E 02:23:25 10° SSW visible
17 Feb 4.2 13:00:14 10° SE 13:03:53 33° ENE 13:07:35 10° N visible
18 Feb 2.5 02:19:33 10° N 02:23:40 80° WNW 02:27:45 10° SSW visible
18 Feb 4.0 13:04:26 10° SE 13:08:12 37° ENE 13:11:59 10° N visible
19 Feb 2.7 02:23:54 10° N 02:28:00 71° WNW 02:32:03 10° SSW visible
19 Feb 3.7 13:08:40 10° SE 13:12:31 42° ENE 13:16:24 10° N visible
20 Feb 3.0 02:28:15 10° N 02:32:18 62° WNW 02:36:21 10° SSW visible
20 Feb 3.5 13:12:54 10° SSE 13:16:50 47° ENE 13:20:47 10° N visible
21 Feb 3.2 02:32:36 10° N 02:36:37 54° WNW 02:40:36 10° SSW visible
21 Feb 3.2 13:17:08 10° SSE 13:21:08 54° ENE 13:25:08 10° N visible
22 Feb 3.5 02:36:57 10° N 02:40:55 47° WNW 02:44:51 10° SSW visible
22 Feb 3.0 13:21:24 10° SSE 13:25:25 61° ENE 13:29:29 10° N visible
23 Feb 3.8 02:41:20 10° N 02:45:12 42° WNW 02:49:04 10° SW visible
23 Feb 2.7 13:25:39 10° SSE 13:29:43 70° ENE 13:33:48 10° N visible
